Terminal Aerodrome Forecast
Issued by NWS Columbia, SC

Home | Current Version | Previous Version | Text Only | Print | Product List | Glossary On
Versions: 1 2 3 4 5 6 7 8 9 10 11 12 13 14 15 16 17 18 19 20 21 22 23 24 25 26 27 28 29 30 31 32 33 34 35 36 37 38 39 40 41 42 43 44 45 46 47
000
FTAK31 PAJN 291137
TAFAGS
TAF
PAGS 291137Z 2912/3012 VRB04KT P6SM -SHRA BKN030 OVC050
     FM292000 14005KT P6SM -SHRA SCT015 BKN040 OVC060
     FM300000 17006KT P6SM VCSH SCT025 OVC040
     FM300300 22004KT P6SM FEW010 SCT025 OVC040
     FM300600 00000KT P6SM VCFG FEW003 SCT025 BKN050
      AMD LTD TO CLD VIS AND WIND=

USA.gov is the U.S. government's official web portal to all federal, state and local government web resources and services.